131  
NZUS93 KARX 250510  
HRRWXR  
 
CURRENT HOURLY OBSERVATIONS ACROSS  
MUCH OF THE UPPER MISSISSIPPI VALLEY  
NATIONAL WEATHER SERVICE LA CROSSE WI  
1200 AM CDT FRI APR 25 2014  
 
   
..SOUTHEAST MINNESOTA
 
 
 
CITY SKY/WX TMP DP RH WIND PRES REMARKS  
ROCHESTER MOCLDY 40 36 86 NW8 29.74S WCI 34  
ROCHESTER/MAYO FAIR 43 39 88 W6 29.74S  
WINONA CLOUDY 45 41 87 NW5 29.74S  
AUSTIN MOCLDY 39 37 93 CALM 29.74S FOG  
ALBERT LEA FOG 39 39 100 SW3 29.75R VSB 1/2  
DODGE CENTER PTCLDY 45 43 93 NW5 29.74S  
PRESTON CLOUDY 41 38 91 NW3 29.75S  
OWATONNA PTCLDY 37 36 93 CALM 29.75S FOG  
FARIBAULT CLEAR 39 36 87 CALM 29.74F HAZE  

 
   
..ELSEWHERE IN MINNESOTA
 
 
 
CITY SKY/WX TMP DP RH WIND PRES REMARKS  
MINNEAPOLIS PTCLDY 40 38 93 SW3 29.73S  
INTNL FALLS LGT SNOW 33 31 92 E6 29.70F FOG WCI 28  
DULUTH LGT SNOW 32 30 92 E5 29.66F FOG WCI 27  
RED WING PTCLDY 43 39 87 CALM 29.72F  
REDWOOD FALLS CLEAR 46 40 79 SW12 29.74S  
MANKATO CLEAR 43 39 87 S3 29.74F  
WORTHINGTON CLEAR 45 37 76 S6 29.78F  
FAIRMONT CLEAR 43 37 81 CALM 29.78S  

 
   
..SOUTHWEST WISCONSIN
 
 
 
CITY SKY/WX TMP DP RH WIND PRES REMARKS  
LA CROSSE CLOUDY 46 40 79 NW10 29.73R  
PRAIRIE DU CHI CLOUDY 46 41 81 NW10G16 29.73R  
BOSCOBEL CLOUDY 49 44 83 W5 29.72R  
LONE ROCK CLOUDY 49 46 90 NW12 29.70R  
PLATTEVILLE CLOUDY 48 46 91 NW10 29.71R  
FORT MC COY CLOUDY 44 42 92 W5 29.73R  
CAMP DOUGLAS CLOUDY 45 45 100 W9 29.70R  
VIROQUA CLOUDY 44 43 97 NW12 29.71S  
WIS DELLS DRZL/FOG 45 44 95 NW5 29.68R VSB 1/2  

 
   
..ELSEWHERE IN WISCONSIN
 
 
 
CITY SKY/WX TMP DP RH WIND PRES REMARKS  
MILWAUKEE LGT RAIN 45 35 68 SE15G21 29.71F  
MADISON CLOUDY 50 48 93 CALM 29.68R  
GREEN BAY LGT RAIN 42 38 85 E13 29.72F  
EAU CLAIRE CLOUDY 43 40 89 W6 29.71R  
BLACK RVR FLS CLOUDY 44 44 100 W7 29.71S FOG  
MEDFORD CLOUDY 38 38 98 S7 29.68S FOG WCI 33  
WAUSAU LGT RAIN 38 38 100 SE5 29.68R FOG WCI 34  
WIS RAPIDS CLOUDY 41 40 96 CALM 29.69F FOG  
MARSHFIELD CLOUDY 41 39 93 CALM 29.68F FOG  
RICE LAKE CLOUDY 40 38 91 W6 29.71R  

 
   
..NORTHEAST IOWA
 
 
 
CITY SKY/WX TMP DP RH WIND PRES REMARKS  
WATERLOO CLOUDY 43 40 89 W6 29.76R  
DUBUQUE CLOUDY 48 45 89 NW15 29.70S  
DECORAH CLOUDY 43 43 100 CALM 29.73S  
MASON CITY PTCLDY 39 39 100 W5 29.77F  
CHARLES CITY CLOUDY 43 41 93 W3 29.76S  
OELWEIN CLOUDY N/A N/A N/A NW8 29.76R  

 
   
..ELSEWHERE IN IOWA
 
 
 
CITY SKY/WX TMP DP RH WIND PRES REMARKS  
DES MOINES MOCLDY 48 43 82 W5 29.80S  
IOWA CITY CLOUDY 49 46 90 NW13 29.73R  
FORT DODGE CLEAR 39 37 93 CALM 29.79F  
MARSHALLTOWN MOCLDY 42 41 96 NW9 29.78R FOG  
CEDAR RAPIDS CLOUDY 46 44 93 NW13 29.73R  

 
   
..NORTHERN ILLINOIS
 
 
 
CITY SKY/WX TMP DP RH WIND PRES REMARKS  
CHICAGO-OHARE LGT RAIN 52 38 58 E6 29.63F  
DUPAGE LGT RAIN 53 39 59 E5 29.63F  
CHICAGO-MIDWAY LGT RAIN 58 32 37 SE13 29.63F  
MOLINE CLOUDY 52 50 93 NW13 29.68R  
ROCKFORD RAIN 51 46 83 NE3 29.71R  
STERLING CLOUDY 52 48 87 NE10 29.64F  
PEORIA CLOUDY 57 52 83 W6 29.62F  

 
 
NOTE: "FAIR" INDICATES FEW OR NO CLOUDS BELOW 12,000 FEET WITH NO  
SIGNIFICANT WEATHER AND/OR OBSTRUCTIONS TO VISIBILITY. WIND  
SPEEDS ARE IN MILES-PER-HOUR.  
 
CLICK HERE TO GO TO PREVIOUS BULLETINS.

The Nexlab WI Page
The Nexlab IA Page
The Nexlab MN Page Main Text Page